MIDAS 3 DEB, 25793

Orbit data source: Space-Track

MIDAS 3 DEB, 25793 is space debris in LEO originally from a launch on Wed, 12 Jul 1961 UTC launched from the Air Force Western Test Range (AFWTR). Debris objects in space refer to the collection of defunct objects orbiting the Earth. Examples of debris include non-operational satellites, rocket bodies, and fragments generated from explosions, collisions, or faulty payload assembly.

Loading next visibility...
Identifier
25793, 1961-018F
Orbit
LEO
Last TLE update
2 days ago
Origin
Manufacturer
Unknown
Mission
Spacecraft
Bus & Motor
Unknown
Mass
Unknown
Launch date (UTC)
1961-07-12 (64 years ago)
Launch vehicle
Unknown
Launch site
Air Force Western Test Range (AFWTR)
Object type
Payload
Rocket body
Debris
Shape & HBR
Unknown
Radar Cross Section
Medium (>0.1 m² and <1 m²)

Expand to show TLE details & history

TLE from 2 days ago
0 MIDAS 3 DEB
1 25793U 61018F   25131.59154651 -.00000008  00000-0 -33080-2 0  9996
2 25793  91.1296 201.5624 0131353 152.8056 207.9772  8.93205785965550
Epoch: 2025-05-11T14:11Z
Definitive object data (Epoch: 2025-05-11T14:11:49.618Z)
Latitude
-0.00006°
Longitude
118.98888°
Altitude
3,550.533 km
Speed
6.3 km/s
True Right ascension
13h 26m 14s
True Declination
0° 00' 00"
Sunlit
Object was in full shadow at TLE epoch
Visualization TLE readout
Latitude
-24.38542°
Longitude
-61.43569°
Altitude
3,365.025 km
Speed
6.422 km/s
Apparent Right ascension
03h 38m 19s
Apparent Declination
-48° 26' 10"
Sunlit
Object is in daylight
Visualization observer readout
Local Sidereal Time
21:49:47
Azimuth
131.93° SE
Elevation
-27.043°
Doppler factor
1
Orbital elements
Apogee altitude
3,560.709 km
Perigee altitude
3,302.995 km
Semi-major axis
9,809.989 km
Eccentricity
0.0131353
Inclination
91.1296°
RAAN
201.5624°
Arg. of periapsis
152.8056°
True anomaly
207.2812°
Mean anomaly
207.9772°
Eccentric anomaly
207.6282°
Mean motion
2.23378 °/min
BSTAR
-0.003308
Orbital period
161.16 mins
Loading maneuver chart data...
Loading SW <> Apogee altitude chart data...
Loading historical data...
Loading historical data...
Loading historical data...
Loading historical data...
Loading historical data...
Loading historical data...
Loading historical data...
Other satellites on launch #18 in the year 1961 (1961-07-12 UTC)

MIDAS 3 DEB Visibility forecast

Observer location: undefined°, undefined°

Span
Click to sort rows by Start time (UTC) header in descending order
Start Az.
Max El. time (UTC)
Max El. Az.
Max El.
End time (UTC)
End Az.
32 mins2025-05-13 15:21:02.932Z10.287° NNE2025-05-13 15:37:02.932Z81.368° E35.856°2025-05-13 15:53:02.932Z152.696° SSE
30 mins2025-05-13 18:03:02.932Z355.019° N2025-05-13 18:17:02.932Z289.86° WNW38.332°2025-05-13 18:33:02.932Z218.099° SW
17 mins2025-05-14 01:36:02.932Z79.884° E2025-05-14 01:44:02.932Z50.945° ENE16.648°2025-05-14 01:53:02.932Z17.789° NNE
34 mins2025-05-14 04:03:02.932Z157.147° SSE2025-05-14 04:20:02.932Z72.237° E43.435°2025-05-14 04:37:02.932Z359.774° N
29 mins2025-05-14 06:47:02.932Z226.93° WSW2025-05-14 07:01:02.932Z283.088° WNW28.672°2025-05-14 07:16:02.932Z344.589° N
|